FW8089 Weather Reports


time (UTC)temp
F
wind
direction
speed
knots
gust
knots
rain 1hr
in
rain 24hr
in
rain mn
in
humidity
%
barometer
mb
20260504032947 58 306 2.6 6.1 0.00 0.00 0.00 72 1033.9
20260504032428 58 313 2.6 6.1 0.00 0.00 0.00 72 1033.9
20260504031328 58 5 1.7 6.1 0.00 0.00 0.00 72 1033.9
20260504030153 58 323 1.7 5.2 0.00 0.00 0.00 72 1033.9
20260504025650 58 352 2.6 5.2 0.00 0.00 0.00 72 1033.9
20260504025155 58 352 2.6 5.2 0.00 0.00 0.00 71 1033.9
20260504024636 59 355 1.7 5.2 0.00 0.00 0.00 71 1034.0
20260504023507 59 66 1.7 5.2 0.00 0.00 0.00 73 1034.1
20260504023010 59 327 3.5 7.0 0.00 0.00 0.00 72 1034.1
20260504022453 59 353 3.5 7.0 0.00 0.00 0.00 71 1034.1
20260504021936 59 343 2.6 7.0 0.00 0.00 0.00 72 1034.1
20260504020822 59 355 2.6 7.8 0.00 0.00 0.00 71 1034.1
20260504015700 59 239 3.5 7.8 0.00 0.00 0.00 71 1034.2
20260504015158 59 341 3.5 7.0 0.00 0.00 0.00 71 1034.3
20260504014639 59 331 2.6 7.0 0.00 0.00 0.00 71 1034.2
20260504014123 59 357 2.6 7.0 0.00 0.00 0.00 71 1034.2
20260504013631 59 246 2.6 7.0 0.00 0.00 0.00 71 1034.3
20260504013133 59 10 2.6 7.0 0.00 0.00 0.00 70 1034.3
20260504012614 59 348 2.6 6.1 0.00 0.00 0.00 70 1034.3
20260504012108 59 324 2.6 6.1 0.00 0.00 0.00 70 1034.4
20260504011612 59 350 2.6 6.1 0.00 0.00 0.00 70 1034.4
20260504011052 59 301 2.6 6.1 0.00 0.00 0.00 70 1034.5
20260504010555 60 7 2.6 6.1 0.00 0.00 0.00 70 1034.5
20260504010037 59 19 2.6 6.1 0.00 0.00 0.00 70 1034.6
20260504005523 59 345 2.6 6.1 0.00 0.00 0.00 70 1034.6
20260504005009 59 327 2.6 6.1 0.00 0.00 0.00 71 1034.7
20260504004501 59 0 1.7 5.2 0.00 0.00 0.00 71 1034.7
20260504004000 59 338 1.7 6.1 0.00 0.00 0.00 71 1034.8
20260504003442 59 299 1.7 6.1 0.00 0.00 0.00 71 1034.8
20260504002933 59 345 2.6 7.8 0.00 0.00 0.00 71 1034.8
20260504002419 59 12 2.6 7.8 0.00 0.00 0.00 71 1034.9
20260504001924 59 26 3.5 7.8 0.00 0.00 0.00 71 1034.9
20260504001419 59 56 3.5 7.0 0.00 0.00 0.00 71 1034.9
20260504000903 59 29 3.5 6.1 0.00 0.00 0.00 70 1035.0
20260504000410 59 51 3.5 7.8 0.00 0.00 0.00 71 1035.1
20260503235252 59 51 3.5 7.8 0.00 0.00 0.00 71 1035.1
20260503234112 59 7 3.5 6.1 0.00 0.00 0.00 69 1035.2
20260503233556 59 24 2.6 6.1 0.00 0.00 0.00 70 1035.2
20260503232437 59 0 2.6 5.2 0.00 0.00 0.00 71 1035.3
20260503231945 59 348 2.6 7.0 0.00 0.00 0.00 71 1035.3
20260503231432 58 357 3.5 7.0 0.00 0.00 0.00 71 1035.3
20260503230915 58 29 3.5 7.0 0.00 0.00 0.00 71 1035.3
20260503230410 58 30 3.5 7.0 0.00 0.00 0.00 71 1035.3
20260503225857 58 33 3.5 7.0 0.00 0.00 0.00 71 1035.4
20260503225347 58 26 3.5 7.0 0.00 0.00 0.00 71 1035.3
20260503224219 58 40 2.6 6.1 0.00 0.00 0.00 72 1035.2
20260503223105 58 28 3.5 7.8 0.00 0.00 0.00 72 1035.3
20260503222559 57 21 4.3 7.8 0.00 0.00 0.00 72 1035.3
20260503222039 57 70 4.3 7.8 0.00 0.00 0.00 72 1035.2
20260503220909 57 42 3.5 6.1 0.00 0.00 0.00 72 1035.3
20260503215752 57 42 2.6 7.0 0.00 0.00 0.00 73 1035.3
20260503215254 57 352 2.6 7.0 0.00 0.00 0.00 73 1035.3
20260503214737 57 49 3.5 7.0 0.00 0.00 0.00 73 1035.3
20260503214228 57 42 3.5 7.0 0.00 0.00 0.00 73 1035.3
20260503213718 57 33 3.5 6.1 0.00 0.00 0.00 74 1035.3
20260503211933 56 54 2.6 6.1 0.00 0.00 0.00 75 1035.3
20260503211425 56 35 2.6 6.1 0.00 0.00 0.00 75 1035.3
20260503210917 56 23 2.6 7.0 0.00 0.00 0.00 75 1035.2
20260503210410 56 51 3.5 7.0 0.00 0.00 0.00 75 1035.2
20260503205251 55 21 3.5 6.1 0.00 0.00 0.00 76 1035.2
20260503204734 55 35 3.5 6.1 0.00 0.00 0.00 76 1035.2
20260503204220 55 58 3.5 6.1 0.00 0.00 0.00 77 1035.3
20260503203717 55 33 3.5 6.1 0.00 0.00 0.00 77 1035.2
20260503203217 55 33 2.6 5.2 0.00 0.00 0.00 77 1035.2
20260503202703 55 61 1.7 4.3 0.00 0.00 0.00 78 1035.2
20260503202142 55 338 1.7 4.3 0.00 0.00 0.00 78 1035.1
20260503201642 54 40 1.7 4.3 0.00 0.00 0.00 78 1035.1
20260503201122 54 66 1.7 6.1 0.00 0.00 0.00 78 1035.0
20260503200011 54 47 2.6 6.1 0.00 0.00 0.00 79 1035.0
20260503195520 54 28 2.6 6.1 0.00 0.00 0.00 80 1035.0
20260503194401 53 56 1.7 5.2 0.00 0.00 0.00 81 1034.8
20260503193843 53 75 1.7 5.2 0.00 0.00 0.00 81 1034.8
20260503193340 52 26 1.7 4.3 0.00 0.00 0.00 82 1034.8
20260503192825 52 40 0.9 3.5 0.00 0.00 0.00 82 1034.8
20260503192332 52 33 0.9 2.6 0.00 0.00 0.00 82 1034.8
20260503191825 52 33 0.9 2.6 0.00 0.00 0.00 82 1034.7
20260503191324 52 75 0.9 3.5 0.00 0.00 0.00 82 1034.7
20260503190812 52 47 1.7 3.5 0.00 0.00 0.00 83 1034.7
20260503190254 51 49 1.7 3.5 0.00 0.00 0.00 83 1034.7
20260503185109 51 49 0.9 2.6 0.00 0.00 0.00 82 1034.7
20260503184611 51 94 0.9 2.6 0.00 0.00 0.00 82 1034.6
20260503184109 51 91 0.9 1.7 0.00 0.00 0.00 81 1034.7
20260503182951 51 106 0.0 1.7 0.00 0.00 0.00 81 1034.7
20260503182454 51 134 0.0 0.9 0.00 0.00 0.00 81 1034.6
20260503181954 51 40 0.0 1.7 0.00 0.00 0.00 81 1034.7
20260503181440 51 90 0.9 1.7 0.00 0.00 0.00 81 1034.6
20260503180937 51 107 0.9 2.6 0.00 0.00 0.00 81 1034.6
20260503180420 51 85 0.9 2.6 0.00 0.00 0.00 81 1034.6
20260503175906 51 107 0.9 2.6 0.00 0.00 0.00 81 1034.6
20260503175351 51 112 0.9 2.6 0.00 0.00 0.00 81 1034.6
20260503174851 51 98 0.0 1.7 0.00 0.00 0.00 80 1034.6
20260503174341 51 119 0.9 1.7 0.00 0.00 0.00 80 1034.6
20260503173206 51 104 0.9 2.6 0.00 0.00 0.00 80 1034.5
20260503172700 51 112 0.9 2.6 0.00 0.00 0.00 80 1034.4
20260503172154 51 106 0.9 2.6 0.00 0.00 0.00 80 1034.5
20260503171656 51 106 0.9 2.6 0.00 0.00 0.00 80 1034.5
20260503171200 51 106 0.9 2.6 0.00 0.00 0.00 80 1034.6
20260503170657 51 73 0.9 1.7 0.00 0.00 0.00 80 1034.6
20260503170151 51 82 0.0 1.7 0.00 0.00 0.00 80 1034.6
20260503140115 51 112 1.7 4.3 0.00 0.00 0.00 81 1035.1
20260503130658 50 99 0.9 3.5 0.00 0.00 0.00 82 1034.9
20260503120134 49 106 2.6 6.1 0.00 0.00 0.00 83 1034.8
20260503110622 48 114 2.6 5.2 0.00 0.00 0.00 85 1034.6
20260503110123 48 91 2.6 5.2 0.00 0.00 0.00 85 1034.6
20260503100140 47 120 2.6 5.2 0.00 0.00 0.00 86 1034.5
20260503081003 45 47 1.7 3.5 0.00 0.00 0.00 84 1033.9
20260503080511 45 73 0.9 3.5 0.00 0.00 0.00 84 1034.0
20260503072855 47 40 0.9 1.7 0.00 0.00 0.00 82 1033.8
20260503072359 47 58 0.9 1.7 0.00 0.00 0.00 81 1033.8
20260503071904 47 66 0.9 1.7 0.00 0.00 0.00 80 1033.7
20260503071402 48 66 0.9 1.7 0.00 0.00 0.00 80 1033.7
20260503070858 48 84 0.0 1.7 0.00 0.00 0.00 80 1033.7
20260503070354 48 77 0.0 1.7 0.00 0.00 0.00 80 1033.7
20260503054930 55 338 0.9 1.7 0.00 0.00 0.00 71 1033.6
20260503054417 55 5 0.9 4.3 0.00 0.00 0.00 71 1033.6
20260503053909 56 23 0.9 4.3 0.00 0.00 0.00 70 1033.6
20260503052725 56 37 0.9 4.3 0.00 0.00 0.00 70 1033.6
20260503051548 57 23 1.7 3.5 0.00 0.00 0.00 69 1033.5
20260503051045 57 350 0.9 3.5 0.00 0.00 0.00 68 1033.5
20260503050541 58 338 0.9 3.5 0.00 0.00 0.00 68 1033.5
20260503050032 58 345 0.9 3.5 0.00 0.00 0.00 68 1033.5
20260503045512 58 291 0.0 3.5 0.00 0.00 0.00 69 1033.5
20260503045022 58 246 0.0 4.3 0.00 0.00 0.00 70 1033.5
20260503043854 58 280 1.7 4.3 0.00 0.00 0.00 69 1033.5
20260503043334 58 261 0.9 4.3 0.00 0.00 0.00 69 1033.5
20260503042832 58 319 0.9 4.3 0.00 0.00 0.00 68 1033.5
20260503041711 59 329 1.7 5.2 0.00 0.00 0.00 67 1033.5
20260503041217 59 246 1.7 6.1 0.00 0.00 0.00 66 1033.5
20260503035427 61 287 2.6 6.1 0.00 0.00 0.00 64 1033.4
20260503034925 61 23 2.6 6.1 0.00 0.00 0.00 63 1033.4
20260503034410 61 327 1.7 6.1 0.00 0.00 0.00 63 1033.4
20260503033915 61 326 2.6 6.1 0.00 0.00 0.00 63 1033.4
20260503033408 61 292 1.7 6.1 0.00 0.00 0.00 63 1033.4